CW2522 Weather Reports


time (UTC)temp
F
wind
direction
speed
knots
gust
knots
rain 1hr
in
rain 24hr
in
rain mn
in
humidity
%
barometer
mb
20260504141026 60 115 3.5 12.2 0.00 0.00 0.00 65 1011.3
20260504140526 60 234 4.3 12.2 0.00 0.00 0.00 64 1011.3
20260504130542 57 121 5.2 9.6 0.00 0.00 0.00 66 1011.8
20260504110536 43 110 1.7 5.2 0.00 0.00 0.00 91 1012.1
20260504100526 40 148 1.7 4.3 0.00 0.00 0.00 92 1011.8
20260504081544 38 67 0.9 2.6 0.00 0.00 0.00 91 1011.2
20260504081038 38 113 0.9 2.6 0.00 0.00 0.00 91 1011.2
20260504080535 38 110 0.9 3.5 0.00 0.00 0.00 91 1011.2
20260504050535 41 41 0.0 2.6 0.00 0.00 0.00 85 1011.2
20260504045556 41 41 0.0 0.9 0.00 0.00 0.00 85 1011.2
20260504045057 41 41 0.0 1.7 0.00 0.00 0.00 84 1011.2
20260504044535 41 41 0.9 1.7 0.00 0.00 0.00 84 1011.3
20260504044036 41 41 0.9 1.7 0.00 0.00 0.00 83 1011.3
20260504043556 41 41 0.9 1.7 0.00 0.00 0.00 82 1011.4
20260504043037 41 41 0.0 0.9 0.00 0.00 0.00 81 1011.3
20260504042537 41 41 0.0 0.9 0.00 0.00 0.00 81 1011.3
20260504042042 41 41 0.0 0.9 0.00 0.00 0.00 80 1011.2
20260504041542 42 41 0.0 0.9 0.00 0.00 0.00 80 1011.2
20260504041043 42 41 0.0 0.0 0.00 0.00 0.00 79 1011.2
20260504040542 42 41 0.0 0.9 0.00 0.00 0.00 79 1011.1
20260504040043 42 41 0.0 0.9 0.00 0.00 0.00 79 1011.1
20260504035529 42 41 0.0 0.9 0.00 0.00 0.00 79 1011.1
20260504035031 42 41 0.9 1.7 0.00 0.00 0.00 79 1011.1
20260504034531 42 41 0.9 1.7 0.00 0.00 0.00 79 1011.1
20260504034033 42 41 0.0 0.0 0.00 0.00 0.00 79 1011.1
20260504033532 42 41 0.0 0.0 0.00 0.00 0.00 79 1011.1
20260504033053 42 41 0.0 0.0 0.00 0.00 0.00 79 1011.0
20260504032553 42 41 0.0 0.0 0.00 0.00 0.00 79 1011.0
20260504032034 42 41 0.0 0.0 0.00 0.00 0.00 79 1011.0
20260504031533 42 41 0.0 0.9 0.00 0.00 0.00 79 1011.0
20260504031034 42 41 0.0 1.7 0.00 0.00 0.00 79 1011.0
20260504030535 42 41 0.9 1.7 0.00 0.00 0.00 78 1010.9
20260504030035 42 41 0.9 1.7 0.00 0.00 0.00 78 1010.9
20260504025539 41 41 0.9 1.7 0.00 0.00 0.00 79 1010.8
20260504025040 41 41 0.0 1.7 0.00 0.00 0.00 78 1010.8
20260504024541 41 41 0.0 1.7 0.00 0.00 0.00 78 1010.8
20260504024041 41 41 0.0 0.9 0.00 0.00 0.00 78 1010.8
20260504023540 41 41 0.0 1.7 0.00 0.00 0.00 78 1010.8
20260504023040 41 41 0.9 1.7 0.00 0.00 0.00 77 1010.9
20260504022541 41 41 0.0 1.7 0.00 0.00 0.00 76 1010.8
20260504022042 41 41 0.9 1.7 0.00 0.00 0.00 76 1010.8
20260504021542 41 41 0.0 0.9 0.00 0.00 0.00 75 1010.9
20260504021042 41 41 0.0 0.9 0.00 0.00 0.00 74 1010.8
20260504020544 42 41 0.0 0.9 0.00 0.00 0.00 74 1010.8
20260504020041 42 41 0.0 1.7 0.00 0.00 0.00 73 1010.8
20260504015524 42 41 0.9 1.7 0.00 0.00 0.00 73 1010.8
20260504015025 42 41 0.0 1.7 0.00 0.00 0.00 72 1010.8
20260504014526 42 41 0.9 1.7 0.00 0.00 0.00 72 1010.7
20260504014025 42 41 0.9 1.7 0.00 0.00 0.00 70 1010.7
20260504013545 43 41 0.0 1.7 0.00 0.00 0.00 70 1010.6
20260504013025 43 41 0.9 1.7 0.00 0.00 0.00 71 1010.6
20260504012525 42 41 0.0 0.9 0.00 0.00 0.00 70 1010.5
20260504012045 42 41 0.0 0.9 0.00 0.00 0.00 71 1010.5
20260504011525 42 41 0.0 0.9 0.00 0.00 0.00 69 1010.4
20260504011024 43 41 0.0 0.0 0.00 0.00 0.00 69 1010.4
20260504010546 43 41 0.0 0.9 0.00 0.00 0.00 70 1010.3
20260504010025 43 41 0.9 0.9 0.00 0.00 0.00 68 1010.1
20260504005526 44 41 0.0 1.7 0.00 0.00 0.00 68 1010.1
20260504005026 44 41 0.9 1.7 0.00 0.00 0.00 68 1010.1
20260504004528 44 41 0.9 1.7 0.00 0.00 0.00 68 1010.0
20260504004028 44 41 0.0 1.7 0.00 0.00 0.00 68 1010.0
20260504003533 45 41 0.0 0.9 0.00 0.00 0.00 67 1009.9
20260504002539 45 41 0.0 1.7 0.00 0.00 0.00 65 1009.8
20260504002044 45 41 0.0 0.9 0.00 0.00 0.00 65 1009.7
20260504001524 45 41 0.0 0.9 0.00 0.00 0.00 68 1009.6
20260504001025 46 41 0.0 1.7 0.00 0.00 0.00 66 1009.6
20260504000526 46 41 0.0 2.6 0.00 0.00 0.00 64 1009.5
20260504000046 46 41 0.9 2.6 0.00 0.00 0.00 64 1009.4
20260503235546 46 346 0.9 1.7 0.00 0.00 0.00 66 1009.3
20260503235026 46 346 0.9 1.7 0.00 0.00 0.00 65 1009.3
20260503234527 46 346 0.9 1.7 0.00 0.00 0.00 66 1009.2
20260503234026 46 344 0.0 1.7 0.00 0.00 0.00 66 1009.2
20260503233527 46 344 0.9 1.7 0.00 0.00 0.00 63 1009.1
20260503233026 46 344 0.9 1.7 0.00 0.00 0.00 62 1009.0
20260503232526 46 344 0.9 1.7 0.00 0.00 0.00 61 1008.9
20260503232025 47 344 0.9 5.2 0.00 0.00 0.00 62 1009.0
20260503231526 48 336 1.7 7.0 0.00 0.00 0.00 59 1009.0
20260503231031 48 5 1.7 9.6 0.00 0.00 0.00 58 1008.9
20260503230552 48 317 1.7 9.6 0.00 0.00 0.00 61 1008.9
20260503230030 48 111 1.7 8.7 0.00 0.00 0.00 58 1008.8
20260503225530 48 15 2.6 9.6 0.00 0.00 0.00 60 1008.9
20260503225029 48 26 4.3 9.6 0.00 0.00 0.00 61 1008.9
20260503224529 48 60 0.9 5.2 0.00 0.00 0.00 62 1008.9
20260503224029 48 38 0.9 8.7 0.00 0.00 0.00 60 1008.8
20260503223531 48 360 3.5 8.7 0.00 0.00 0.00 61 1008.8
20260503223030 48 87 0.9 5.2 0.00 0.00 0.00 63 1008.8
20260503222530 48 105 1.7 8.7 0.00 0.00 0.00 63 1008.8
20260503222032 49 119 2.6 8.7 0.00 0.00 0.00 59 1008.7
20260503221532 49 105 2.6 10.4 0.00 0.00 0.00 58 1008.7
20260503221034 49 46 2.6 13.0 0.00 0.00 0.00 61 1008.7
20260503220535 49 12 7.0 13.0 0.00 0.00 0.00 60 1008.8
20260503220040 49 128 3.5 7.8 0.00 0.00 0.00 60 1008.7
20260503215539 50 84 2.6 11.3 0.00 0.00 0.00 61 1008.7
20260503215040 50 360 4.3 10.4 0.00 0.00 0.00 58 1008.7
20260503214540 50 80 2.6 9.6 0.00 0.00 0.00 58 1008.6
20260503214040 50 9 1.7 8.7 0.00 0.00 0.00 59 1008.7
20260503213540 50 350 4.3 8.7 0.00 0.00 0.00 61 1008.7
20260503213040 49 19 3.5 8.7 0.00 0.00 0.00 60 1008.7
20260503212600 49 21 4.3 10.4 0.00 0.00 0.00 62 1008.6
20260503212039 49 5 5.2 10.4 0.00 0.00 0.00 62 1008.7
20260503211540 49 25 2.6 14.8 0.00 0.00 0.00 61 1008.7
20260503211042 49 34 8.7 14.8 0.00 0.00 0.00 60 1008.6
20260503210541 49 5 6.1 13.9 0.00 0.00 0.00 62 1008.7
20260503210040 49 5 5.2 13.0 0.00 0.00 0.00 62 1008.5
20260503205540 49 338 4.3 15.6 0.00 0.00 0.00 61 1008.7
20260503205045 49 335 6.1 15.6 0.00 0.00 0.00 60 1008.8
20260503204544 49 58 4.3 14.8 0.00 0.00 0.00 60 1008.6
20260503204025 49 40 8.7 14.8 0.00 0.00 0.00 60 1008.6
20260503203525 49 308 6.1 15.6 0.00 0.00 0.00 61 1008.6
20260503203026 49 36 7.0 15.6 0.00 0.00 0.00 62 1008.7
20260503202526 49 327 7.8 13.0 0.00 0.00 0.00 61 1008.6
20260503202027 50 355 7.8 13.0 0.00 0.00 0.00 61 1008.5
20260503201526 50 12 7.0 16.5 0.00 0.00 0.00 62 1008.6
20260503201047 50 338 9.6 16.5 0.00 0.00 0.00 59 1008.7
20260503200546 51 338 6.1 13.9 0.00 0.00 0.00 61 1008.7
20260503200027 51 331 7.0 18.2 0.00 0.00 0.00 62 1008.7
20260503195526 50 331 5.2 18.2 0.00 0.00 0.00 65 1008.7
20260503195027 50 202 3.5 15.6 0.00 0.00 0.00 61 1008.6
20260503194528 51 313 6.1 13.9 0.00 0.00 0.00 61 1008.9
20260503194029 51 360 5.2 13.9 0.00 0.00 0.00 62 1008.8
20260503193531 51 20 4.3 9.6 0.00 0.00 0.00 61 1008.7
20260503193032 50 5 3.5 13.9 0.00 0.00 0.00 62 1008.8
20260503192532 50 300 7.8 14.8 0.00 0.00 0.00 63 1009.0
20260503192033 50 112 4.3 14.8 0.00 0.00 0.00 66 1008.7
20260503191534 49 272 7.8 20.9 0.00 0.00 0.00 62 1008.7
20260503191034 48 23 8.7 20.9 0.00 0.00 0.00 65 1008.8
20260503190534 48 16 5.2 15.6 0.00 0.00 0.00 64 1008.9
20260503190033 48 103 5.2 15.6 0.00 0.00 0.00 65 1008.8
20260503185534 50 51 7.8 13.0 0.00 0.00 0.00 64 1008.9
20260503184545 50 188 4.3 10.4 0.00 0.00 0.00 65 1008.8
20260503184024 50 15 6.1 10.4 0.00 0.00 0.00 64 1008.8
20260503183544 50 282 5.2 13.0 0.00 0.00 0.00 64 1008.7
20260503183044 49 38 7.0 13.0 0.00 0.00 0.00 64 1009.0
20260503182524 49 61 3.5 14.8 0.00 0.00 0.00 65 1008.9
20260503182025 49 31 5.2 14.8 0.00 0.00 0.00 63 1008.8
20260503181037 48 337 8.7 18.2 0.00 0.00 0.00 64 1008.9
20260503180538 49 333 9.6 14.8 0.00 0.00 0.00 64 1008.6
20260503180044 49 327 4.3 18.2 0.00 0.00 0.00 67 1008.9
20260503175604 49 347 8.7 18.2 0.00 0.00 0.00 62 1008.6
20260503175104 49 360 6.1 15.6 0.00 0.00 0.00 63 1008.8
20260503174542 49 14 8.7 16.5 0.00 0.00 0.00 62 1008.8
20260503174043 49 54 9.6 15.6 0.00 0.00 0.00 62 1008.6
20260503173544 48 5 7.0 13.0 0.00 0.00 0.00 64 1008.8
20260503173024 49 340 7.8 16.5 0.00 0.00 0.00 64 1008.8
20260503172524 49 331 8.7 16.5 0.00 0.00 0.00 63 1008.7
20260503172025 49 55 7.0 15.6 0.00 0.00 0.00 63 1008.9
20260503171525 48 52 6.1 18.2 0.00 0.00 0.00 66 1008.8
20260503171026 47 26 4.3 11.3 0.00 0.00 0.00 65 1008.7
20260503170526 47 360 3.5 11.3 0.00 0.00 0.00 69 1008.8
20260503150529 43 24 3.5 18.2 0.00 0.00 0.00 88 1009.7